Regional Weather Roundup
Issued by NWS Cleveland, OH

Home | Current Version | Previous Version | Graphics & Text | Print | Product List | Glossary On
Versions: 1 2 3 4 5 6 7 8 9 10 11 12 13 14 15 16 17 18 19 20 21 22 23 24 25 26 27 28 29 30 31 32 33 34 35 36 37 38 39 40 41 42 43 44 45 46 47 48 49 50
416
ASUS41 KCLE 241212
RWRCLE
OHIO REGIONAL WEATHER ROUNDUP
NATIONAL WEATHER SERVICE WILMINGTON, OH
800 AM EDT SUN JUL 24 2016

NOTE: "FAIR" INDICATES FEW OR NO CLOUDS BELOW 12,000 FEET WITH NO
SIGNIFICANT WEATHER AND/OR OBSTRUCTIONS TO VISIBILITY.

OHZ001>008-015>018-024>027-034-035-043-044-241300-
   NORTHWEST OHIO

CITY           SKY/WX    TMP DP  RH WIND       PRES   REMARKS
DEFIANCE       FAIR      77  70  79 CALM      29.97R
FINDLAY        FAIR      77  71  82 S6        29.97S
TOLEDO EXPRESS FAIR      75  73  93 CALM      29.95R
TOLEDO EXEC    FAIR      77  72  84 S5        29.97R
LIMA           FAIR      75  73  93 S6        29.99S
$$

OHZ009>014-019>023-028>033-038-089-241300-
   NORTHEAST OHIO

CITY           SKY/WX    TMP DP  RH WIND       PRES   REMARKS
CLE-HOPKINS    PTSUNNY   78  60  53 S8        30.00F
CLE-LAKEFRONT  FAIR      78  61  55 SE10      29.97F
CUY CO. ARPT   PTSUNNY   79  63  57 S9        30.00F
LORAIN-ELYRIA  FAIR      72  63  73 S8        29.99F
ASHTABULA      FAIR      68  65  90 S3        30.03R
AKRON-CANTON   PTSUNNY   75  61  61 S6        30.03S
WOOSTER        FAIR      72  67  84 CALM      30.02F
MANSFIELD      FAIR      76  65  68 SE9       30.02S
YOUNGSTOWN     PTSUNNY   73  62  68 SE5       30.03S
$$

OHZ042-051>053-060>062-070>072-077>081-241300-
  SOUTHWEST OHIO

CITY           SKY/WX    TMP DP  RH WIND       PRES   REMARKS
CINC-COVINGTON PTSUNNY   79  75  87 CALM      30.01S
CINC-LUNKEN    FAIR      77  76  96 CALM      30.00F
HAMILTON       FAIR      78  74  87 CALM      30.00F
DAYTON         PTSUNNY   76  72  87 CALM      30.02R
WRIGHT-PAT AFB FAIR      77  76  96 NW1       30.00S
DAYTON GENERAL FAIR      78  73  84 SE3       30.00F
WILMINGTON     FAIR      77  74  90 S5        30.01F FOG
$$

OHZ036-037-039>041-045>050-054>059-063>069-073>076-082>088-241300-
  CENTRAL AND SOUTHEAST OHIO

CITY           SKY/WX    TMP DP  RH WIND       PRES   REMARKS
COLUMBUS       PTSUNNY   76  73  91 S5        30.00S
OSU AIRPORT    FAIR      78  74  87 CALM      30.00S
BOLTON FIELD   SUNNY     75  75 100 CALM      30.01S FOG
RICKENBACK AFB FAIR      73  73  98 SE3       30.00S FOG
NEWARK         FAIR      74  72  93 CALM      30.01F FOG
MARION         FAIR      75  71  87 S5        30.00F
LANCASTER      FAIR      75  73  93 CALM      30.01F
ZANESVILLE     FAIR      76  71  85 CALM      30.02R
NEW PHILLY     FAIR      73  66  78 CALM      30.02S
$$




USA.gov is the U.S. government's official web portal to all federal, state and local government web resources and services.